Weather in Angoche

Mozambique     16°13′51″S   39°54′13″E
temp.,
°C
wind,
m/s
gust,
m/s
humid.,
%
clouds,
%
prec.,
mm/h
press.,
hPa
HPBL,
m
18 april, sun
sun1823:00+25s91176100 0.5 10181010
02:00+25s9106582 1.3 10171228
05:00+25s9106596 0.1 10181372
08:00+25ssw796499 0.2 10191292
11:00+26s896488 0.3 10191334
14:00+26ssw78610 0.3 10171495
17:00+25s78672 0.0 1017962
20:00+25ssw67646 0.1 10191054
19 april, mon
mon1923:00+25ssw5768100 0.0 1018913
02:00+24ssw466842 0.1 1017806
05:00+23sw467241 0.1 1017773
08:00+24sw457253 0.1 1018619
11:00+26sw666480 0.0 10171230
14:00+26ssw676480 0.0 1015901
17:00+25ssw676548 0.0 1016720
20:00+25sw567086 0.0 1018647
20 april, tue
tue2023:00+24wsw4672100 0.0 1017500
02:00+23wsw5675100 0.0 1016412
05:00+23wsw5680100 0.0 1016355
08:00+24wsw568010 0.0 1017393
11:00+26sw567211 0.0 1016799
14:00+26sw677315 0.1 1015856
17:00+26ssw687494 0.0 1015746
20:00+26sw57744 0.0 1017699
21 april, wed
wed2123:00+25sw46783 0.0 1016617
02:00+24wsw4585100 0.0 1015312
05:00+23wsw468995 0.0 1015284
08:00+25wsw4682100 0.0 1017389
11:00+27ssw5569100 0.0 10161004
14:00+27ssw567358 0.1 1014809
17:00+26ssw567313 0.1 1015551
20:00+26ssw4574100 0.1 1016492
22 april, thu
thu2223:00+25sw357938 0.0 1015520
02:00+24sw458414 0.1 1014329
05:00+23wsw4591100 0.3 1015283
08:00+25sw4583100 0.4 1016468
11:00+27s4577100 1.1 1015831
14:00+27s557821 2.9 1014823
17:00+26s568127 1.4 1014613
20:00+25ssw46836 2.7 1016531